Regional Weather Roundup
Issued by NWS

Home | Current Version | Previous Version | Graphics & Text | Print | Product List | Glossary On
Versions: 1 2 3 4 5 6 7 8 9 10 11 12 13 14 15 16 17 18 19 20 21 22 23 24 25 26 27 28 29 30 31 32 33 34 35 36 37 38 39 40 41 42 43 44 45 46 47 48 49 50
000
ASUS43 KFSD 301310
RWRSD

WEATHER ROUNDUP FOR SOUTH DAKOTA
NATIONAL WEATHER SERVICE SIOUX FALLS SD
800 AM CDT TUE SEP 30 2014

NOTE: "FAIR" INDICATES FEW OR NO CLOUDS BELOW 12,000 FEET WITH NO
SIGNIFICANT WEATHER AND/OR OBSTRUCTIONS TO VISIBILITY.


SDZ001>005-009-010-012>017-301400-
NORTHWEST AND NORTH CENTRAL SOUTH DAKOTA

CITY           SKY/WX    TMP DP  RH WIND       PRES   REMARKS
BUFFALO          N/A     53  52  96 NE15      29.54F
FAITH            N/A     57  56  96 E16G25    29.55F
MOBRIDGE       LGT RAIN  54  51  90 E18G29    29.64F
$$

SDZ012>016-024>037-041>051-057-063-072>074-301400-
SOUTHWEST AND SOUTH CENTRAL SOUTH DAKOTA

CITY           SKY/WX    TMP DP  RH WIND       PRES   REMARKS
RAPID CTY ARPT LGT RAIN  55  54  96 N15       29.45F VSB 1
PIERRE         CLOUDY    57  56  96 E29G36    29.57F
CUSTER         LGT RAIN  47  44  90 NW13G22   29.52F
ELLSWORTH AFB  LGT RAIN  54  54 100 N15       29.46
PHILIP         CLOUDY    61  56  83 SE21G31   29.46F
PINE RIDGE     CLOUDY    51  49  92 SW28G36   29.42R
WINNER         FAIR      63  58  83 SE21      29.60F
$$

SDZ004>011-016>023-039-040-301400-
NORTHEAST SOUTH DAKOTA

CITY           SKY/WX    TMP DP  RH WIND       PRES   REMARKS
ABERDEEN       MOCLDY    52  48  86 E12       29.78F
WATERTOWN      CLOUDY    47  45  93 SE14G22   29.86F
SISSETON         N/A     45  43  93 SE10      29.91F
$$

SDZ017-020-022-023-036>040-048>070-301400-
SOUTHEAST SOUTH DAKOTA

CITY           SKY/WX    TMP DP  RH WIND       PRES   REMARKS
SIOUX FALLS    CLOUDY    53  50  89 SE14      29.86F
HURON          CLOUDY    56  50  80 SE14G23   29.75F
CHAMBERLAIN    CLOUDY    58  57  96 SE21G32   29.65F FOG
MITCHELL       CLOUDY    56  52  86 SE16G25   29.76F
YANKTON        CLOUDY    57  54  88 E13G20    29.81S
$$

ABBREVIATIONS USED IN REMARKS
   TC - TEMPERATURE IN CELSIUS
  WCI - WIND CHILL INDEX
   HX - HEAT INDEX
  VSB - VISIBILITY



USA.gov is the U.S. government's official web portal to all federal, state and local government web resources and services.